Luverne, MN

3:05 PM CST on February 22, 2018 (GMT -0600)
Luverne

Weather History for KLYV - January, 2014

Change the Weather History Date:

Sunday, January 12, 2014

  Actual Average (KPQN) Record (KPQN)
Temperature  
Mean Temperature 32 °F -  
Max Temperature 37 °F 21 °F 44 °F (2004)
Min Temperature 26 °F 6 °F -16 °F (1997)
Degree Days  
Heating Degree Days 34    
Moisture  
Dew Point 30 °F    
Average Humidity 84    
Maximum Humidity 93    
Minimum Humidity 75    
Precipitation  
Precipitation 0.00 in - - ()
Sea Level Pressure  
Sea Level Pressure 29.47 in    
Wind  
Wind Speed 10 mph (WSW)    
Max Wind Speed 18 mph    
Max Gust Speed 22 mph    
Visibility 10 miles    
Events      
Averages and records for this station are not official NWS values.
T = Trace of Precipitation, MM = Missing Value Source: NWS Daily Summary

Daily Weather History Graph

Daily Weather History Graph

Search for Another Location

Airport or City:

Trip Planner

Search our weather history database for the weather conditions in past years. The results will help you decide how hot, cold, wet, or windy it might be!

Date:

Astronomy

Jan. 12, 2014 Rise Set
Actual Time 7:56 AM CST 5:10 PM CST
Civil Twilight 7:24 AM CST 5:42 PM CST
Nautical Twilight 6:48 AM CST 6:17 PM CST
Astronomical Twilight 6:14 AM CST 6:52 PM CST
Moon 2:39 PM CST (1/12) 4:55 AM CST (1/12)
Length of Visible Light 10h 17m
Length of Day
9h 13m
Waxing Gibbous, 90% of the Moon is Illuminated
Jan 12
Waxing Gibbous
Jan 15
Full
Jan 23
Last Quarter
Jan 30
New
Feb 6
First Quarter

Hourly Weather History & Observations

Time (CST) Temp. Windchill Dew Point Humidity Pressure Visibility Wind Dir Wind Speed Gust Speed Precip Events Conditions
12:14 AM 26.6 °F 16.2 °F 24.8 °F 93% 29.53 in 10.0 mi South 11.5 mph - N/A   Clear
12:35 AM 28.4 °F 17.0 °F 26.6 °F 93% 29.52 in 10.0 mi South 15.0 mph - N/A   Clear
12:54 AM 30.2 °F 20.2 °F 26.6 °F 86% 29.50 in 10.0 mi South 12.7 mph - N/A   Clear
1:15 AM 32.0 °F 23.0 °F 24.8 °F 75% 29.48 in 10.0 mi South 11.5 mph - N/A   Clear
1:34 AM 32.0 °F 22.5 °F 26.6 °F 80% 29.47 in 10.0 mi South 12.7 mph - N/A   Clear
1:55 AM 32.0 °F 21.2 °F 26.6 °F 80% 29.46 in 10.0 mi South 16.1 mph - N/A   Clear
2:14 AM 33.8 °F 23.2 °F 26.6 °F 75% 29.44 in 10.0 mi South 17.3 mph - N/A   Clear
2:35 AM 33.8 °F 22.8 °F 28.4 °F 81% 29.43 in 10.0 mi South 18.4 mph - N/A   Clear
2:55 AM 33.8 °F 23.5 °F 28.4 °F 81% 29.41 in 10.0 mi South 16.1 mph 21.9 mph N/A   Clear
3:14 AM 33.8 °F 24.3 °F 28.4 °F 81% 29.40 in 10.0 mi South 13.8 mph - N/A   Clear
3:34 AM 33.8 °F 25.3 °F 28.4 °F 81% 29.39 in 10.0 mi South 11.5 mph - N/A   Clear
3:55 AM 33.8 °F 25.3 °F 28.4 °F 81% 29.36 in 10.0 mi South 11.5 mph - N/A   Clear
4:14 AM 33.8 °F 24.8 °F 28.4 °F 81% 29.35 in 10.0 mi South 12.7 mph - N/A   Clear
4:34 AM 33.8 °F 27.0 °F 28.4 °F 81% 29.36 in 10.0 mi South 8.1 mph - N/A   Clear
4:55 AM 32.0 °F 23.6 °F 26.6 °F 80% 29.35 in 10.0 mi South 10.4 mph - N/A   Clear
5:14 AM 32.0 °F 22.1 °F 26.6 °F 80% 29.35 in 10.0 mi South 13.8 mph - N/A   Clear
5:34 AM 32.0 °F 23.0 °F 26.6 °F 80% 29.35 in 10.0 mi SSW 11.5 mph - N/A   Clear
5:55 AM 32.0 °F 23.6 °F 28.4 °F 87% 29.35 in 10.0 mi South 10.4 mph - N/A   Clear
6:14 AM 33.8 °F 27.7 °F 28.4 °F 81% 29.35 in 10.0 mi South 6.9 mph - N/A   Clear
6:34 AM 32.0 °F 24.8 °F 28.4 °F 87% 29.35 in 10.0 mi South 8.1 mph - N/A   Clear
6:55 AM 32.0 °F 25.6 °F 28.4 °F 87% 29.34 in 10.0 mi South 6.9 mph - N/A   Clear
7:14 AM 32.0 °F 23.0 °F 28.4 °F 87% 29.34 in 10.0 mi South 11.5 mph - N/A   Clear
7:34 AM 32.0 °F 24.8 °F 28.4 °F 87% 29.35 in 10.0 mi South 8.1 mph - N/A   Clear
7:55 AM 32.0 °F 27.5 °F 28.4 °F 87% 29.36 in 10.0 mi SSW 4.6 mph - N/A   Clear
8:14 AM 32.0 °F 26.4 °F 28.4 °F 87% 29.40 in 10.0 mi WSW 5.8 mph - N/A   Clear
8:34 AM 33.8 °F 26.4 °F 30.2 °F 87% 29.40 in 10.0 mi West 9.2 mph - N/A   Clear
8:55 AM 35.6 °F 27.5 °F 30.2 °F 81% 29.41 in 10.0 mi West 11.5 mph - N/A   Clear
9:14 AM 35.6 °F 28.0 °F 30.2 °F 81% 29.41 in 10.0 mi WNW 10.4 mph - N/A   Clear
9:34 AM 35.6 °F 31.7 °F 30.2 °F 81% 29.42 in 10.0 mi WNW 4.6 mph - N/A   Clear
9:55 AM 35.6 °F 31.7 °F 30.2 °F 81% 29.42 in 10.0 mi WNW 4.6 mph - N/A   Clear
10:14 AM 35.6 °F 30.7 °F 32.0 °F 87% 29.43 in 10.0 mi West 5.8 mph - N/A   Clear
10:34 AM 35.6 °F 29.9 °F 32.0 °F 87% 29.43 in 10.0 mi WNW 6.9 mph - N/A   Clear
10:55 AM 35.6 °F 31.7 °F 32.0 °F 87% 29.44 in 10.0 mi WNW 4.6 mph - N/A   Clear
11:14 AM 35.6 °F 30.7 °F 32.0 °F 87% 29.43 in 10.0 mi NW 5.8 mph - N/A   Clear
11:34 AM 35.6 °F 30.7 °F 32.0 °F 87% 29.43 in 10.0 mi WNW 5.8 mph - N/A   Clear
11:55 AM 37.4 °F 33.8 °F 32.0 °F 81% 29.43 in 10.0 mi WNW 4.6 mph - N/A   Clear
12:14 PM 37.4 °F 30.8 °F 32.0 °F 81% 29.43 in 10.0 mi West 9.2 mph - N/A   Clear
12:35 PM 37.4 °F 32.1 °F 32.0 °F 81% 29.44 in 10.0 mi WNW 6.9 mph - N/A   Clear
12:54 PM 37.4 °F 31.4 °F 32.0 °F 81% 29.43 in 10.0 mi WNW 8.1 mph - N/A   Clear
1:15 PM 37.4 °F 30.3 °F 32.0 °F 81% 29.43 in 10.0 mi WNW 10.4 mph - N/A   Clear
1:34 PM 37.4 °F 31.4 °F 32.0 °F 81% 29.43 in 10.0 mi NW 8.1 mph - N/A   Clear
1:55 PM 37.4 °F 32.8 °F 32.0 °F 81% 29.43 in 10.0 mi NW 5.8 mph - N/A   Clear
2:14 PM 37.4 °F 32.8 °F 32.0 °F 81% 29.45 in 10.0 mi NW 5.8 mph - N/A   Clear
2:35 PM 37.4 °F 32.1 °F 32.0 °F 81% 29.47 in 10.0 mi WNW 6.9 mph - N/A   Clear
2:55 PM 37.4 °F 32.1 °F 32.0 °F 81% 29.48 in 10.0 mi WNW 6.9 mph - N/A   Clear
3:14 PM 37.4 °F 32.1 °F 32.0 °F 81% 29.49 in 10.0 mi West 6.9 mph - N/A   Clear
3:35 PM 37.4 °F 32.1 °F 32.0 °F 81% 29.50 in 10.0 mi West 6.9 mph - N/A   Clear
3:55 PM 37.4 °F - 32.0 °F 81% 29.50 in 10.0 mi Calm Calm - N/A   Clear
4:14 PM 37.4 °F 34.9 °F 32.0 °F 81% 29.50 in 10.0 mi SW 3.5 mph - N/A   Clear
4:35 PM 37.4 °F - 32.0 °F 81% 29.50 in 10.0 mi Calm Calm - N/A   Clear
4:55 PM 35.6 °F 29.2 °F 32.0 °F 87% 29.51 in 10.0 mi WNW 8.1 mph - N/A   Clear
5:14 PM 35.6 °F 28.6 °F 32.0 °F 87% 29.52 in 10.0 mi WNW 9.2 mph - N/A   Clear
5:35 PM 35.6 °F 29.9 °F 32.0 °F 87% 29.53 in 10.0 mi NW 6.9 mph - N/A   Clear
5:55 PM 35.6 °F 29.9 °F 32.0 °F 87% 29.53 in 10.0 mi WNW 6.9 mph - N/A   Clear
6:14 PM 35.6 °F - 32.0 °F 87% 29.54 in 10.0 mi Calm Calm - N/A   Clear
6:35 PM 35.6 °F 32.8 °F 32.0 °F 87% 29.56 in 10.0 mi South 3.5 mph - N/A   Clear
6:54 PM 35.6 °F - 32.0 °F 87% 29.58 in 10.0 mi Calm Calm - N/A   Clear
7:14 PM 35.6 °F 30.7 °F 32.0 °F 87% 29.58 in 10.0 mi SW 5.8 mph - N/A   Clear
7:35 PM 33.8 °F 27.0 °F 32.0 °F 93% 29.59 in 10.0 mi SSW 8.1 mph - N/A   Clear
7:54 PM 33.8 °F 29.6 °F 32.0 °F 93% 29.60 in 10.0 mi SSW 4.6 mph - N/A   Clear
8:14 PM 33.8 °F - 32.0 °F 93% 29.60 in 10.0 mi Calm Calm - N/A   Clear
8:35 PM 33.8 °F 28.6 °F 32.0 °F 93% 29.60 in 10.0 mi WSW 5.8 mph - N/A   Clear
8:54 PM 35.6 °F 32.8 °F 32.0 °F 87% 29.59 in 10.0 mi West 3.5 mph - N/A   Clear
9:14 PM 35.6 °F 31.7 °F 32.0 °F 87% 29.59 in 10.0 mi West 4.6 mph - N/A   Clear
9:35 PM 35.6 °F 29.2 °F 32.0 °F 87% 29.60 in 10.0 mi West 8.1 mph - N/A   Clear
9:54 PM 35.6 °F 27.5 °F 32.0 °F 87% 29.60 in 10.0 mi West 11.5 mph - N/A   Clear
10:14 PM 35.6 °F 28.0 °F 32.0 °F 87% 29.59 in 10.0 mi West 10.4 mph - N/A   Scattered Clouds
10:35 PM 35.6 °F 26.6 °F 32.0 °F 87% 29.59 in 10.0 mi West 13.8 mph - N/A   Clear
10:54 PM 37.4 °F 28.5 °F 32.0 °F 81% 29.59 in 10.0 mi West 15.0 mph - N/A   Clear
11:14 PM 35.6 °F 26.2 °F 30.2 °F 81% 29.59 in 10.0 mi WNW 15.0 mph - N/A   Clear
11:35 PM 35.6 °F 26.6 °F 30.2 °F 81% 29.59 in 10.0 mi West 13.8 mph - N/A   Clear
11:54 PM 33.8 °F 24.8 °F 30.2 °F 87% 29.60 in 10.0 mi West 12.7 mph - N/A   Clear